Location: ??????????
(41.2581°N, 22.8006°E)
Time: 04:14:07
(UTC+00:00)

GEOS 3 Rocket - Pass Details

Date: 18 March 2026
Orbit: 767 x 846 km, 115.0° (Epoch: 17 April)

Event Time Altitude Azimuth Distance (km) Brightness Sun altitude
Rises 01:53:11 0° 46° (NE) 3,410 7.9 -30.3°
Reaches altitude 10° 01:55:51 10° 57° (ENE) 2,468 7.0 -29.8°
Maximum altitude 02:00:27 29° 116° (ESE) 1,506 5.3 -29.1°
Enters shadow 02:02:30 22° 152° (SSE) 1,732 5.3 -28.7°
